Omaha, NE

2:18 PM CST on January 21, 2017 (GMT -0600)
Blair

Weather History for KBTA - March, 2014

Change the Weather History Date:

Monday, March 17, 2014

  Actual Average (KOMA) Record (KOMA)
Temperature  
Mean Temperature 43 °F -  
Max Temperature 60 °F 49 °F 84 °F (1894)
Min Temperature 26 °F 28 °F -1 °F (1923)
Degree Days  
Heating Degree Days 22    
Moisture  
Dew Point 21 °F    
Average Humidity 48    
Maximum Humidity 71    
Minimum Humidity 25    
Precipitation  
Precipitation 0.00 in - - ()
Sea Level Pressure  
Sea Level Pressure 29.65 in    
Wind  
Wind Speed 16 mph (South)    
Max Wind Speed 28 mph    
Max Gust Speed 36 mph    
Visibility 10 miles    
Events      
Averages and records for this station are not official NWS values.
T = Trace of Precipitation, MM = Missing Value Source: NWS Daily Summary

Daily Weather History Graph

Daily Weather History Graph

Search for Another Location

Airport or City:

Trip Planner

Search our weather history database for the weather conditions in past years. The results will help you decide how hot, cold, wet, or windy it might be!

Date:

Astronomy

Mar. 17, 2014 Rise Set
Actual Time 7:32 AM CDT 7:33 PM CDT
Civil Twilight 7:05 AM CDT 8:00 PM CDT
Nautical Twilight 6:33 AM CDT 8:33 PM CDT
Astronomical Twilight 6:00 AM CDT 9:05 PM CDT
Moon 8:52 PM CDT (3/17) 7:48 AM CDT (3/17)
Length of Visible Light 12h 55m
Length of Day
12h 00m
Full, 99% of the Moon is Illuminated
Mar 17
Full
Mar 23
Last Quarter
Mar 30
New
Apr 7
First Quarter
Apr 15
Full

Hourly Weather History & Observations

Time (CDT) Temp. Windchill Dew Point Humidity Pressure Visibility Wind Dir Wind Speed Gust Speed Precip Events Conditions
12:15 AM 27.3 °F 18.4 °F 17.2 °F 66% 30.03 in 10.0 mi SSE 9.2 mph - N/A   Clear
12:35 AM 26.6 °F 17.5 °F 17.1 °F 67% 30.02 in 10.0 mi SSE 9.2 mph - N/A   Clear
1:15 AM 26.4 °F 16.0 °F 17.2 °F 68% 29.99 in 10.0 mi SSE 11.5 mph - N/A   Clear
1:35 AM 26.8 °F 16.5 °F 17.2 °F 67% 29.99 in 10.0 mi SSE 11.5 mph - N/A   Clear
1:55 AM 27.1 °F 18.2 °F 17.6 °F 67% 29.99 in 10.0 mi SSE 9.2 mph - N/A   Clear
2:15 AM 27.5 °F 16.8 °F 17.6 °F 66% 29.98 in 10.0 mi SSE 12.7 mph - N/A   Clear
2:35 AM 27.5 °F 16.3 °F 17.6 °F 66% 29.95 in 10.0 mi SSE 13.8 mph - N/A   Clear
2:55 AM 27.7 °F 16.6 °F 17.6 °F 66% 29.93 in 10.0 mi SSE 13.8 mph 21.9 mph N/A   Clear
3:15 AM 27.9 °F 16.8 °F 17.6 °F 65% 29.93 in 10.0 mi South 13.8 mph 21.9 mph N/A   Clear
3:35 AM 27.5 °F 15.4 °F 17.1 °F 65% 29.90 in 10.0 mi South 16.1 mph - N/A   Clear
3:55 AM 27.1 °F 14.9 °F 16.7 °F 65% 29.90 in 10.0 mi South 16.1 mph 21.9 mph N/A   Clear
4:15 AM 26.6 °F 14.7 °F 16.3 °F 65% 29.89 in 10.0 mi South 15.0 mph - N/A   Clear
4:35 AM 26.4 °F 14.0 °F 16.5 °F 66% 29.86 in 10.0 mi South 16.1 mph - N/A   Clear
4:55 AM 26.4 °F 14.0 °F 16.5 °F 66% 29.85 in 10.0 mi South 16.1 mph - N/A   Clear
5:15 AM 26.2 °F 13.8 °F 16.5 °F 67% 29.85 in 10.0 mi South 16.1 mph - N/A   Clear
5:35 AM 26.4 °F 13.2 °F 16.7 °F 67% 29.82 in 10.0 mi South 18.4 mph - N/A   Clear
5:55 AM 26.2 °F 14.2 °F 16.7 °F 67% 29.82 in 10.0 mi South 15.0 mph - N/A   Clear
6:15 AM 26.4 °F 14.0 °F 17.2 °F 68% 29.81 in 10.0 mi South 16.1 mph - N/A   Clear
6:35 AM 27.0 °F 15.2 °F 17.6 °F 68% 29.81 in 10.0 mi South 15.0 mph - N/A   Clear
6:55 AM 26.6 °F 14.3 °F 17.4 °F 68% 29.79 in 10.0 mi South 16.1 mph - N/A   Clear
7:15 AM 26.2 °F 14.2 °F 17.6 °F 70% 29.79 in 10.0 mi South 15.0 mph - N/A   Clear
7:35 AM 26.1 °F 12.7 °F 17.6 °F 70% 29.77 in 10.0 mi South 18.4 mph 21.9 mph N/A   Clear
7:55 AM 26.4 °F 13.2 °F 18.1 °F 71% 29.76 in 10.0 mi South 18.4 mph - N/A   Clear
8:15 AM 27.3 °F 14.4 °F 18.5 °F 69% 29.75 in 10.0 mi South 18.4 mph 25.3 mph N/A   Clear
8:35 AM 28.4 °F 15.1 °F 18.7 °F 67% 29.74 in 10.0 mi South 20.7 mph 26.5 mph N/A   Clear
8:55 AM 29.3 °F 17.3 °F 18.5 °F 64% 29.73 in 10.0 mi South 17.3 mph 24.2 mph N/A   Clear
9:15 AM 31.3 °F 18.9 °F 19.2 °F 61% 29.72 in 10.0 mi South 20.7 mph - N/A   Clear
9:35 AM 32.5 °F 20.5 °F 19.4 °F 58% 29.71 in 10.0 mi South 20.7 mph 27.6 mph N/A   Clear
9:55 AM 34.5 °F 23.4 °F 19.2 °F 54% 29.69 in 10.0 mi South 19.6 mph - N/A   Clear
10:15 AM 36.3 °F 25.2 °F 19.8 °F 51% 29.68 in 10.0 mi South 21.9 mph 27.6 mph N/A   Clear
10:35 AM 38.1 °F 27.1 °F 19.9 °F 48% 29.67 in 10.0 mi South 24.2 mph 28.8 mph N/A   Clear
10:55 AM 40.1 °F 30.2 °F 20.3 °F 45% 29.65 in 10.0 mi South 21.9 mph 29.9 mph N/A   Clear
11:15 AM 41.4 °F 31.9 °F 20.8 °F 44% 29.64 in 10.0 mi South 21.9 mph 31.1 mph N/A   Clear
11:35 AM 43.5 °F 34.7 °F 21.0 °F 41% 29.63 in 10.0 mi South 21.9 mph 29.9 mph N/A   Clear
11:55 AM 45.0 °F 37.1 °F 21.0 °F 39% 29.62 in 10.0 mi South 19.6 mph - N/A   Clear
12:15 PM 46.6 °F - 21.0 °F 36% 29.60 in 10.0 mi South 20.7 mph - N/A   Clear
12:35 PM 47.3 °F - 21.2 °F 36% 29.59 in 10.0 mi South 23.0 mph 31.1 mph N/A   Clear
12:55 PM 48.9 °F - 21.4 °F 34% 29.57 in 10.0 mi South 24.2 mph 29.9 mph N/A   Clear
1:15 PM 50.7 °F - 21.9 °F 32% 29.56 in 10.0 mi South 19.6 mph - N/A   Clear
1:35 PM 52.0 °F - 22.5 °F 32% 29.56 in 10.0 mi South 21.9 mph - N/A   Clear
1:55 PM 53.8 °F - 23.0 °F 30% 29.55 in 10.0 mi South 25.3 mph 31.1 mph N/A   Clear
2:15 PM 55.8 °F - 23.5 °F 29% 29.53 in 10.0 mi South 27.6 mph - N/A   Clear
2:35 PM 56.5 °F - 23.5 °F 28% 29.52 in 10.0 mi South 21.9 mph 28.8 mph N/A   Clear
2:55 PM 58.1 °F - 23.7 °F 27% 29.51 in 10.0 mi South 23.0 mph 31.1 mph N/A   Clear
3:15 PM 58.3 °F - 24.1 °F 27% 29.50 in 10.0 mi South 25.3 mph 33.4 mph N/A   Clear
3:35 PM 58.5 °F - 24.1 °F 27% 29.49 in 10.0 mi South 27.6 mph 35.7 mph N/A   Clear
3:55 PM 59.7 °F - 24.4 °F 26% 29.48 in 10.0 mi South 23.0 mph 29.9 mph N/A   Clear
4:15 PM 60.4 °F - 24.6 °F 25% 29.47 in 10.0 mi South 23.0 mph 29.9 mph N/A   Clear
4:35 PM 57.6 °F - 24.3 °F 28% 29.46 in 10.0 mi SSE 19.6 mph 26.5 mph N/A   Clear
4:55 PM 59.0 °F - 24.8 °F 27% 29.46 in 10.0 mi SSE 20.7 mph 25.3 mph N/A   Clear
5:15 PM 59.4 °F - 25.2 °F 27% 29.45 in 10.0 mi South 20.7 mph 27.6 mph N/A   Clear
5:35 PM 60.3 °F - 24.8 °F 26% 29.44 in 10.0 mi South 25.3 mph 31.1 mph N/A   Clear
5:55 PM 58.1 °F - 25.2 °F 28% 29.44 in 10.0 mi South 19.6 mph - N/A   Clear
6:15 PM 58.3 °F - 25.3 °F 28% 29.44 in 10.0 mi South 20.7 mph 25.3 mph N/A   Clear
6:35 PM 56.3 °F - 25.2 °F 30% 29.44 in 10.0 mi South 18.4 mph 26.5 mph N/A   Clear
6:55 PM 55.6 °F - 25.3 °F 31% 29.43 in 10.0 mi SSE 17.3 mph - N/A   Clear
7:15 PM 54.5 °F - 25.3 °F 32% 29.43 in 10.0 mi SSE 16.1 mph - N/A   Clear
7:35 PM 54.0 °F - 25.2 °F 33% 29.42 in 10.0 mi SSE 21.9 mph - N/A   Clear
7:55 PM 53.6 °F - 25.2 °F 33% 29.43 in 10.0 mi SSE 16.1 mph - N/A   Clear
8:15 PM 52.9 °F - 25.0 °F 34% 29.43 in 10.0 mi SSE 17.3 mph 21.9 mph N/A   Clear
8:35 PM 52.7 °F - 25.2 °F 34% 29.43 in 10.0 mi SSE 16.1 mph 23.0 mph N/A   Clear
8:55 PM 51.8 °F - 25.0 °F 35% 29.43 in 10.0 mi SSE 18.4 mph 21.9 mph N/A   Clear
9:15 PM 51.4 °F - 24.8 °F 35% 29.43 in 10.0 mi SSE 19.6 mph 24.2 mph N/A   Clear
9:35 PM 50.9 °F - 25.0 °F 36% 29.43 in 10.0 mi SSE 19.6 mph 28.8 mph N/A   Clear
9:55 PM 50.4 °F - 25.7 °F 38% 29.44 in 10.0 mi SSE 18.4 mph 27.6 mph N/A   Clear
10:35 PM 49.1 °F - 26.2 °F 41% 29.44 in 10.0 mi SSE 18.4 mph 26.5 mph N/A   Clear
10:55 PM 48.4 °F - 27.1 °F 44% 29.44 in 10.0 mi South 21.9 mph 26.5 mph N/A   Clear
11:15 PM 48.2 °F - 28.0 °F 46% 29.44 in 10.0 mi South 20.7 mph 27.6 mph N/A   Clear
11:35 PM 47.7 °F - 28.6 °F 48% 29.44 in 10.0 mi SSE 19.6 mph 28.8 mph N/A   Clear
11:55 PM 47.3 °F - 28.8 °F 49% 29.44 in 10.0 mi South 21.9 mph 31.1 mph N/A   Clear